Stündliche Wetter Abdulovka

Heute, 24 Juni, Donnerstag

Zeit Temperatur Niederschläge Wind Luftdruck Luftfeuchtigkeit
00:00 +24°C° 0 mm 2 m/S 747 mmHg 76%
01:00 +23°C° 0 mm 2 m/S 747 mmHg 78%
02:00 +23°C° 0 mm 2 m/S 747 mmHg 79%
03:00 +21°C° 0 mm 2 m/S 747 mmHg 81%
04:00 +23°C° 0 mm 2 m/S 747 mmHg 79%
05:00 +24°C° 0 mm 2 m/S 747 mmHg 78%
06:00 +25°C° 0 mm 2 m/S 747 mmHg 76%
07:00 +26°C° 0 mm 2 m/S 747 mmHg 71%
08:00 +28°C° 0 mm 2 m/S 747 mmHg 67%
09:00 +29°C° 0 mm 2 m/S 747 mmHg 62%
10:00 +30°C° 0 mm 2 m/S 747 mmHg 57%
11:00 +31°C° 0 mm 2 m/S 747 mmHg 53%
12:00 +32°C° 0 mm 2 m/S 747 mmHg 49%
13:00 +32°C° 0 mm 2 m/S 747 mmHg 47%
14:00 +32°C° 0 mm 2 m/S 747 mmHg 45%
15:00 +32°C° 0 mm 2 m/S 747 mmHg 44%
16:00 +32°C° 0 mm 2 m/S 746 mmHg 49%
17:00 +31°C° 0 mm 2 m/S 746 mmHg 54%
18:00 +30°C° 0 mm 1 m/S 746 mmHg 58%
19:00 +27°C° 0.5 mm 2 m/S 746 mmHg 68%
20:00 +25°C° 0.5 mm 2 m/S 746 mmHg 77%
21:00 +21°C° 0.5 mm 3 m/S 746 mmHg 86%
22:00 +21°C° 0 mm 2 m/S 746 mmHg 83%
23:00 +21°C° 0 mm 2 m/S 746 mmHg 80%

Morgen, 25 Juni, Freitag

Zeit Temperatur Niederschläge Wind Luftdruck Luftfeuchtigkeit
00:00 +21°C° 0 mm 2 m/S 745 mmHg 77%
01:00 +21°C° 0 mm 2 m/S 745 mmHg 78%
02:00 +20°C° 0 mm 2 m/S 746 mmHg 79%
03:00 +20°C° 0 mm 2 m/S 746 mmHg 81%
04:00 +21°C° 0 mm 2 m/S 746 mmHg 80%
05:00 +23°C° 0 mm 2 m/S 745 mmHg 80%
06:00 +23°C° 0 mm 2 m/S 745 mmHg 79%
07:00 +25°C° 0 mm 2 m/S 745 mmHg 73%
08:00 +27°C° 0 mm 2 m/S 745 mmHg 68%
09:00 +28°C° 0 mm 2 m/S 746 mmHg 62%
10:00 +29°C° 0 mm 2 m/S 745 mmHg 58%
11:00 +30°C° 0 mm 2 m/S 745 mmHg 53%
12:00 +31°C° 0 mm 3 m/S 745 mmHg 49%
13:00 +32°C° 0 mm 2 m/S 745 mmHg 48%
14:00 +32°C° 0 mm 2 m/S 745 mmHg 47%
15:00 +32°C° 0 mm 2 m/S 745 mmHg 47%
16:00 +32°C° 0 mm 2 m/S 745 mmHg 52%
17:00 +31°C° 0 mm 2 m/S 744 mmHg 57%
18:00 +31°C° 0 mm 2 m/S 744 mmHg 62%
19:00 +29°C° 0 mm 1 m/S 744 mmHg 65%
20:00 +27°C° 0 mm 1 m/S 744 mmHg 69%
21:00 +25°C° 0 mm 1 m/S 743 mmHg 73%
22:00 +25°C° 0.2 mm 1 m/S 744 mmHg 76%
23:00 +24°C° 0.2 mm 1 m/S 744 mmHg 79%

übermorgen, 26 Juni, Samstag

Zeit Temperatur Niederschläge Wind Luftdruck Luftfeuchtigkeit
00:00 +23°C° 0.2 mm 1 m/S 744 mmHg 82%
01:00 +23°C° 0 mm 1 m/S 743 mmHg 83%
02:00 +23°C° 0 mm 1 m/S 743 mmHg 85%
03:00 +23°C° 0 mm 1 m/S 743 mmHg 86%
04:00 +23°C° 0 mm 1 m/S 743 mmHg 84%
05:00 +24°C° 0 mm 1 m/S 744 mmHg 83%
06:00 +25°C° 0 mm 1 m/S 744 mmHg 81%
07:00 +27°C° 0 mm 1 m/S 744 mmHg 75%
08:00 +26°C° 0 mm 0 m/S 744 mmHg 70%
09:00 +28°C° 0 mm 0 m/S 743 mmHg 64%
10:00 +29°C° 0 mm 0 m/S 743 mmHg 59%
11:00 +30°C° 0 mm 0 m/S 743 mmHg 55%
12:00 +31°C° 0 mm 0 m/S 743 mmHg 50%
13:00 +31°C° 0 mm 0 m/S 743 mmHg 49%
14:00 +33°C° 0 mm 1 m/S 743 mmHg 48%
15:00 +33°C° 0 mm 1 m/S 743 mmHg 47%
16:00 +32°C° 0 mm 1 m/S 743 mmHg 53%
17:00 +31°C° 0 mm 1 m/S 743 mmHg 59%
18:00 +31°C° 0 mm 1 m/S 743 mmHg 64%
19:00 +29°C° 0 mm 2 m/S 743 mmHg 66%
20:00 +27°C° 0 mm 2 m/S 743 mmHg 68%
21:00 +25°C° 0 mm 2 m/S 743 mmHg 70%
22:00 +24°C° 0.1 mm 2 m/S 743 mmHg 72%
23:00 +24°C° 0.1 mm 2 m/S 743 mmHg 74%

27 Juni, Sonntag

Zeit Temperatur Niederschläge Wind Luftdruck Luftfeuchtigkeit
00:00 +24°C° 0.1 mm 2 m/S 743 mmHg 77%
01:00 +24°C° 0 mm 2 m/S 743 mmHg 77%
02:00 +24°C° 0 mm 1 m/S 743 mmHg 77%
03:00 +24°C° 0 mm 1 m/S 743 mmHg 77%
04:00 +25°C° 0 mm 1 m/S 743 mmHg 77%
05:00 +25°C° 0 mm 1 m/S 743 mmHg 76%
06:00 +26°C° 0 mm 1 m/S 743 mmHg 75%
07:00 +25°C° 0 mm 0 m/S 743 mmHg 70%
08:00 +27°C° 0 mm 0 m/S 743 mmHg 65%
09:00 +28°C° 0 mm 0 m/S 743 mmHg 60%
10:00 +29°C° 0 mm 0 m/S 743 mmHg 56%
11:00 +30°C° 0 mm 0 m/S 743 mmHg 51%
12:00 +33°C° 0 mm 1 m/S 743 mmHg 47%
13:00 +33°C° 0 mm 1 m/S 743 mmHg 46%
14:00 +33°C° 0 mm 1 m/S 743 mmHg 44%
15:00 +35°C° 0 mm 2 m/S 743 mmHg 42%
16:00 +34°C° 0 mm 2 m/S 743 mmHg 48%
17:00 +32°C° 0 mm 1 m/S 743 mmHg 53%
18:00 +31°C° 0 mm 1 m/S 742 mmHg 59%
19:00 +29°C° 0 mm 2 m/S 742 mmHg 63%
20:00 +28°C° 0 mm 2 m/S 743 mmHg 67%
21:00 +26°C° 0 mm 2 m/S 743 mmHg 72%
22:00 +25°C° 0 mm 2 m/S 742 mmHg 73%
23:00 +25°C° 0 mm 2 m/S 742 mmHg 75%

28 Juni, Montag

Zeit Temperatur Niederschläge Wind Luftdruck Luftfeuchtigkeit
00:00 +24°C° 0 mm 2 m/S 742 mmHg 77%
01:00 +24°C° 0 mm 2 m/S 742 mmHg 76%
02:00 +24°C° 0 mm 1 m/S 742 mmHg 75%
03:00 +23°C° 0 mm 1 m/S 742 mmHg 75%
04:00 +24°C° 0 mm 1 m/S 742 mmHg 74%
05:00 +25°C° 0 mm 1 m/S 742 mmHg 73%
06:00 +26°C° 0 mm 1 m/S 743 mmHg 72%
07:00 +27°C° 0 mm 1 m/S 743 mmHg 68%
08:00 +29°C° 0 mm 2 m/S 743 mmHg 64%
09:00 +30°C° 0 mm 2 m/S 743 mmHg 59%
10:00 +31°C° 0 mm 2 m/S 743 mmHg 56%
11:00 +32°C° 0 mm 2 m/S 743 mmHg 53%
12:00 +34°C° 0 mm 2 m/S 743 mmHg 49%
13:00 +33°C° 0 mm 1 m/S 742 mmHg 47%
14:00 +33°C° 0 mm 1 m/S 742 mmHg 46%
15:00 +34°C° 0 mm 1 m/S 742 mmHg 44%
16:00 +33°C° 0 mm 1 m/S 742 mmHg 49%
17:00 +32°C° 0 mm 1 m/S 741 mmHg 54%
18:00 +31°C° 0 mm 1 m/S 741 mmHg 59%
19:00 +29°C° 0 mm 2 m/S 741 mmHg 62%
20:00 +28°C° 0 mm 2 m/S 741 mmHg 65%
21:00 +27°C° 0 mm 3 m/S 742 mmHg 68%
22:00 +26°C° 0 mm 3 m/S 741 mmHg 70%
23:00 +26°C° 0 mm 3 m/S 741 mmHg 72%

29 Juni, Dienstag

Zeit Temperatur Niederschläge Wind Luftdruck Luftfeuchtigkeit
00:00 +25°C° 0 mm 3 m/S 741 mmHg 74%
01:00 +24°C° 0 mm 2 m/S 741 mmHg 76%
02:00 +24°C° 0 mm 2 m/S 741 mmHg 77%
03:00 +24°C° 0 mm 2 m/S 741 mmHg 79%
04:00 +24°C° 0 mm 2 m/S 741 mmHg 79%
05:00 +25°C° 0 mm 2 m/S 741 mmHg 79%
06:00 +26°C° 0 mm 2 m/S 741 mmHg 79%
07:00 +27°C° 0 mm 2 m/S 741 mmHg 75%
08:00 +28°C° 0 mm 3 m/S 741 mmHg 70%
09:00 +29°C° 0 mm 4 m/S 741 mmHg 65%
10:00 +30°C° 0 mm 4 m/S 741 mmHg 61%
11:00 +32°C° 0 mm 4 m/S 741 mmHg 57%
12:00 +33°C° 0 mm 4 m/S 741 mmHg 53%
13:00 +34°C° 0 mm 4 m/S 741 mmHg 51%
14:00 +34°C° 0 mm 4 m/S 741 mmHg 49%
15:00 +35°C° 0 mm 3 m/S 740 mmHg 46%
16:00 +34°C° 0 mm 3 m/S 740 mmHg 52%
17:00 +33°C° 0 mm 3 m/S 739 mmHg 58%
18:00 +32°C° 0 mm 4 m/S 738 mmHg 64%
19:00 +29°C° 1.6 mm 3 m/S 739 mmHg 72%
20:00 +26°C° 1.6 mm 3 m/S 739 mmHg 79%
21:00 +24°C° 1.6 mm 3 m/S 740 mmHg 87%
22:00 +22°C° 0.5 mm 3 m/S 740 mmHg 88%
23:00 +22°C° 0.5 mm 3 m/S 740 mmHg 90%
Mehr zeigen

Wir brauchen deine Erlaubnis

Meteoprog und unser Service Anbieter werden persönliche Daten aufbewahren, so wie Cookies, Geräte Bezeichnung oder ähnliche Technologien von deinem Gerät und Prozess, so wie Persönliche Daten Inhalte und Werbungen, genauso wie social Media und den Verkehr zu analysieren.

  • Aufbewahrung und/oder Zugang zu deiner Geräte Informationen.

    Cookies, Geräte Bezeichnung oder andere Informationen, können aufbewahrt oder Zugang zu deinem Gerät erhalten, für den Grund, der oben angegeben wird.

  • Personalisierte Werbung und Inhalte, Messungen, Einblick in das Publikum und Produkt Entwicklung.

    Werbungen und Inhalte können personalisiert werden, basierend auf ein Profil. Mehr Daten können besser personalisierte Werbungen und Inhalte hinzufügen. Werbung und Inhalte können gezeigt und gemessen werden. Einblicke über das Publikum, welche die Werbung gesehen haben und den Inhalt, können abgeleitet werden. So wie Daten können genutzt werden, um es zu verbessern oder die Benutzer Erfahrung zu verbessern das System und die Software.

Wenn du “Ich stimme zu” klickst, erlaubst du uns, die Cookies zu benutzen die Geräte Bezeichnung, den Web oder ähnliche Technologien zu benutzen. Deine Settings, können in deinem Gerät bei deinem Browser geändert werden.

Für den bestimmten Zweck, berechtigten Interessen beruhen darauf, mehr als auf den Inhalt. Du kannst mehr darüber in unseren Privaten und Cookie Politik lesen.